Regional Weather Roundup
Issued by NWS

Home | Current Version | Previous Version | Graphics & Text | Print | Product List | Glossary On
Versions: 1 2 3 4 5 6 7 8 9 10 11 12 13 14 15 16 17 18 19 20 21 22 23 24 25 26 27 28 29 30 31 32 33 34 35 36 37 38 39 40 41 42 43 44 45 46 47 48 49 50
000
ASUS43 KOAX 140910
RWRNE

WEATHER ROUNDUP FOR NEBRASKA
NATIONAL WEATHER SERVICE OMAHA NE
400 AM CDT MON JUL 14 2014

NOTES: SATELLITE DATA IS BEING USED TO AUGMENT CLOUD COVER ABOVE
       12000 FEET.
       "FAIR" INDICATES FEW OR NO CLOUDS BELOW 12,000 FEET WITH NO
       SIGNIFICANT WEATHER AND/OR OBSTRUCTIONS TO VISIBILITY.

  * THESE STATIONS DO NOT REPORT WEATHER SUCH AS RAIN...SNOW OR FOG.

NEZ001>004-019>022-054>056-141000-
NEBRASKA PANHANDLE

CITY           SKY/WX    TMP DP  RH WIND       PRES   REMARKS
SCOTTSBLUFF    MOCLDY    64  59  83 N8        30.21R
ALLIANCE       CLEAR     58  55  90 N8        30.19R
CHADRON        PTCLDY    56  54  93 SW5       30.18F
KIMBALL        PTCLDY    61  55  81 NW9       30.23R
SIDNEY         PTCLDY    62  58  86 N10       30.22R
$$

NEZ057>060-069>072-079>082-141000-
SOUTHWEST NEBRASKA

CITY           SKY/WX    TMP DP  RH WIND       PRES   REMARKS
NORTH PLATTE   CLEAR     63  61  93 NW3       30.10R
IMPERIAL       CLEAR     63  59  87 W8        30.11F
LEXINGTON      PTCLDY    67  62  84 NE13G20   30.09R
MCCOOK         CLEAR     64  61  90 W10       30.08S
OGALLALA       CLEAR     60  58  94 W3        30.14S
$$

NEZ005>010-023>029-035>040-094-141000-
NORTH CENTRAL NEBRASKA

CITY           SKY/WX    TMP DP  RH WIND       PRES   REMARKS
VALENTINE      CLOUDY    63  55  75 NW3       30.13S
AINSWORTH      CLOUDY    64  58  81 CALM      30.12S
BROKEN BOW     TSTM      64  62  93 CALM      30.11R FOG
O`NEILL        MOCLDY    61  56  84 W3        30.09S
ORD            CLOUDY    65  62  90 N5        30.08R
THEDFORD       PTCLDY    63  60  91 N5        30.14S
$$

NEZ041-046>049-061>064-073>077-083>087-141000-
SOUTH CENTRAL NEBRASKA

CITY           SKY/WX    TMP DP  RH WIND       PRES   REMARKS
GRAND ISLAND   TSTM      65  63  93 N7        30.10S FOG
AURORA         TSTM      67  66  97 W5        30.09R
HASTINGS       MOCLDY    69  63  81 N14       30.07R
HEBRON         CLOUDY    70  66  87 CALM      30.01R
HOLDREGE       PTCLDY    65  62  90 N6        30.07R
KEARNEY *      MOCLDY    66  57  72 NE17      30.09R
YORK           TSTM      68  68 100 N6        30.06R
$$

NEZ011>018-030>034-042>045-141000-
NORTHEAST NEBRASKA

CITY           SKY/WX    TMP DP  RH WIND       PRES   REMARKS
NORFOLK        LGT RAIN  60  57  89 W6        30.05S
ALBION         MOCLDY    64  58  80 N6        30.08R
BLAIR          MOCLDY    69  49  49 N8        29.98F
FREMONT        MOCLDY    68  62  81 NW6       30.02R
TEKAMAH        MOCLDY    68  62  81 CALM      30.00R
WAYNE          MOCLDY    63  59  87 NW6       30.03S
$$

NEZ050>053-065>068-078-088>093-141000-
SOUTHEAST NEBRASKA

CITY           SKY/WX    TMP DP  RH WIND       PRES   REMARKS
LINCOLN        MOCLDY    72  66  81 N10       30.01S
OMAHA EPPLEY   CLOUDY    69  65  86 N8        29.98S
BEATRICE       CLOUDY    67  65  93 CALM      29.99S
FALLS CITY     MOCLDY    68  67  96 NW3       29.95S
NEBRASKA CITY  CLEAR     68  68 100 N6        29.97S
PLATTSMOUTH    PTCLDY    68  65  90 N3        29.98F
$$

NEZ044-045-051>053-067-141000-
OMAHA AREA

CITY           SKY/WX    TMP DP  RH WIND       PRES   REMARKS
OMAHA EPPLEY   CLOUDY    69  65  86 N8        29.98S
BLAIR          MOCLDY    69  49  49 N8        29.98F
FREMONT        MOCLDY    68  62  81 NW6       30.02R
MILLARD        PTCLDY    72  62  72 N5        29.99S
OFFUTT AFB     CLEAR     71  66  84 N7        29.97S
PLATTSMOUTH    PTCLDY    68  65  90 N3        29.98F
WAHOO          CLOUDY    69  62  80 NW5       30.01R
$$


USA.gov is the U.S. government's official web portal to all federal, state and local government web resources and services.